Location: A�t �Alizem
(31.2076°N, 8.7872°W)
Time: 15:12:07
(UTC+00:00)

deb Explorer IX - Pass Details

Date: 23 June 2021
Orbit: 542 x 1233 km, 38.9° (Epoch: 22 July)

Event Time Altitude Azimuth Distance (km) Brightness Sun altitude
Exits shadow 00:32:21 19° 56° (NE) 1,832 ? -35.4°
Drops below altitude 10° 00:34:02 10° 61° (ENE) 2,448 ? -35.4°
Sets 00:36:53 0° 65° (ENE) 3,510 ? -35.4°
